Regional Weather Roundup
Issued by NWS

Home | Current Version | Previous Version | Graphics & Text | Print | Product List | Glossary Off
Versions: 1 2 3 4 5 6 7 8 9 10 11 12 13 14 15 16 17 18 19 20 21 22 23 24 25 26 27 28 29 30 31 32 33 34 35 36 37 38 39 40 41 42 43 44 45 46 47 48 49 50

000
ASUS43 KDMX 240306
RWRIA

WEATHER ROUNDUP FOR IOWA
NATIONAL WEATHER SERVICE DES MOINES IA
1000 PM CDT SUN JUL 23 2017

NOTE: "FAIR" INDICATES FEW OR NO CLOUDS BELOW 12,000 FEET WITH NO
SIGNIFICANT WEATHER AND/OR OBSTRUCTIONS TO VISIBILITY.

* - THESE STATIONS ARE NOT NWS STATIONS...THUS NOT UNDER NWS
QUALITY CONTROL.  THEY ALSO DO NOT REPORT WEATHER SUCH
AS PRECIPITATION OR FOG.

IAZ001>003-012>014-020>022-031>034-043>046-240400-
   NORTHWEST IOWA

CITY           SKY/WX    TMP DP  RH WIND       PRES   REMARKS
CARROLL *      CLEAR     66  63  88 N6        29.98R
CHEROKEE *     CLEAR     67  60  78 CALM      30.00R
DENISON *      CLEAR     70  61  73 NE9       30.00R
ORANGE CITY *  CLEAR     68  61  77 E3        30.01R
SHELDON *      CLEAR     63  61  94 NE6       30.00R
SIOUX CITY     CLEAR     74  62  66 NE12      29.98R
SPENCER        CLEAR     65  59  81 N6        30.00R
STORM LAKE *   CLEAR     66  59  77 NE8       30.00R
$$

IAZ055>058-069>071-079>083-090>094-240400-
   SOUTHWEST IOWA

CITY           SKY/WX    TMP DP  RH WIND       PRES   REMARKS
ATLANTIC *     CLEAR     70  63  78 NE3       29.97R
AUDUBON *      CLEAR     70  63  78 N7        29.99R
CLARINDA *     CLEAR     70  66  88 CALM      29.98R
COUNCIL BLFS * CLEAR     72  64  78 NE6       29.97R
CRESTON *      CLEAR     72  63  73 NE7       29.98R
HARLAN  *      CLEAR     68  64  88 NE6       30.01R
LAMONI         CLEAR     73  63  70 N7        29.95R
RED OAK *      CLEAR     70  64  83 N7        29.96R
SHENANDOAH *   CLEAR     72  68  88 NE3       29.96R
$$

IAZ047>049-059>061-072>074-084-240400-
   CENTRAL IOWA

CITY           SKY/WX    TMP DP  RH WIND       PRES   REMARKS
AMES           CLEAR     69  62  78 N8        29.96R
ANKENY *       CLEAR     68  61  77 N7        29.97R
BOONE *        CLEAR     68  59  73 N8        29.97R
CHARITON *     CLEAR     72  63  73 N8        29.94R
DES MOINES     PTCLDY    75  59  57 N10G18    29.94R
GRINNELL*      CLEAR     67  61  79 N7        29.96R
KNOXVILLE *    CLEAR     73  61  64 N8        29.93R
MARSHALLTOWN   CLEAR     66  63  90 N7        29.95R
NEWTON *       CLEAR     68  61  77 N6        29.95S
PELLA *        CLEAR     70  61  73 CALM      29.95R
$$

IAZ004>006-015-016-023>025-035-036-240400-
   NORTH CENTRAL IOWA

CITY           SKY/WX    TMP DP  RH WIND       PRES   REMARKS
ALGONA *       CLEAR     68  63  83 N5        29.99R
CLARION *      PTCLDY    64  64 100 N6        29.98R
ESTHERVILLE    CLEAR     62  61  96 N5        29.99R
FORT DODGE *   CLEAR     66  57  72 CALM      29.99R
MASON CITY     PTCLDY    64  60  87 N7        29.99R
FOREST CITY *    N/A     66  61  82 CALM      29.98S
WEBSTER CITY * CLEAR     63  59  88 NW3       29.96R
IOWA FALLS *     N/A     65  62  89 N5        29.98R
$$

IAZ007>011-017>019-026>030-037>042-050>054-066-240400-
   NORTHEAST IOWA

CITY           SKY/WX    TMP DP  RH WIND       PRES   REMARKS
CEDAR RAPIDS   CLEAR     68  65  90 N5        29.92R
CHARLES CITY * CLEAR     66  64  94 N7        29.97R
DECORAH *      CLEAR     64  59  82 N6        29.95R
DUBUQUE        CLEAR     67  61  81 NW8       29.92R
MONTICELLO *   PTCLDY    68  64  88 NW3       29.92R
OELWEIN *        N/A    N/A N/A N/A MISG        N/A
WATERLOO       CLEAR     65  62  90 NW3       29.94R
$$

IAZ064-065-067-068-078-240400-
   EAST CENTRAL IOWA

CITY           SKY/WX    TMP DP  RH WIND       PRES   REMARKS
DAVENPORT      CLEAR     68  64  87 NW6       29.91R
IOWA CITY      CLEAR     76  62  62 N7        29.92R
MT. PLEASANT * CLEAR     70  62  76 NW6       29.92R
MUSCATINE *    CLEAR     72  63  73 N8        29.90R
QUAD CITIES    CLEAR     75  61  61 NW8       29.88R
$$

IAZ062-063-075>077-085>089-095>099-240400-
   SOUTHEAST IOWA

CITY           SKY/WX    TMP DP  RH WIND       PRES   REMARKS
BURLINGTON     CLEAR     74  64  71 N8        29.90R
FAIRFIELD *    CLEAR     68  63  83 N7        29.92R
FORT MADISON * CLEAR     72  64  78 N7        29.92R
KEOKUK *       CLEAR     75  63  64 N6        29.90R
OSKALOOSA *      N/A     69  62  78 N6        29.94R
CENTERVILLE *    N/A     72  63  73 CALM      29.96R
OTTUMWA        CLEAR     72  61  68 N6        29.92R
$$

ABBREVIATIONS USED IN REMARKS
   TC - TEMPERATURES IN CELSIUS
  WCI - WIND CHILL INDEX
   HX - HEAT INDEX
  VSB - VISIBILITY
$$





USA.gov is the U.S. government's official web portal to all federal, state and local government web resources and services.